Location: Anumalkud?ru
(16.4847°N, 80.6636°E)
Time: 14:34:09
(UTC+00:00)

ATLAS 2AS CENTAUR RB - Pass Details

Date: 11 April 2026
Orbit: 322 x 22175 km, 12.7° (Epoch: 10 May)

Event Time Altitude Azimuth Distance (km) Brightness Sun altitude
Rises 13:32:37 0° 274° (W) 12,296 10.2 -10.4°
Reaches altitude 10° 13:49:30 10° 262° (W) 6,823 8.0 -14.3°
Maximum altitude 14:00:15 19° 223° (SW) 2,975 5.3 -16.8°
Drops below altitude 10° 14:04:29 10° 176° (S) 2,434 4.4 -17.8°
Enters shadow 14:05:14 - 167° (SSE) 2,513 4.4 -18.0°
